Miscellaneous Local Product
Issued by NWS Hastings, NE

Home | Current Version | Previous Version | Graphics & Text | Print | Product List | Glossary On
Versions: 1 2 3 4 5 6 7 8 9 10 11 12 13 14 15 16 17 18 19 20 21 22 23 24 25 26 27 28 29 30 31 32 33 34 35 36 37 38 39 40 41 42 43 44 45 46 47 48 49 50
000
AXUS43 KGID 231802
MISGRI

GID CWA HOURLY WEATHER ROUNDUP
NATIONAL WEATHER SERVICE HASTINGS NE
100 PM CDT THU OCT 23 2014

NOTE: "FAIR" INDICATES FEW OR NO CLOUDS BELOW 12,000 FEET WITH NO
SIGNIFICANT WEATHER AND/OR OBSTRUCTIONS TO VISIBILITY.

...SOUTH CENTRAL NEBRASKA...

CITY           SKY/WX    TMP DP  RH WIND       PRES   REMARKS
GRAND ISLAND   MOSUNNY   58  53  84 SW5       30.10F
HASTINGS       FOG       54  52  93 SW3       30.10F VSB 1/4
KEARNEY        CLOUDY    55  54  94 S8        30.11F
ORD            SUNNY     65  52  62 S13       30.05F
YORK           SUNNY     64  55  72 SW3       30.08F
AURORA         SUNNY     60  60 100 SW5       30.09F
LEXINGTON      SUNNY     62  61  96 S9        30.08F
HOLDREGE       PTSUNNY   57  56  96 CALM      30.10F
HEBRON         MOSUNNY   67  60  78 W6        30.08F

...NEBRASKA PANHANDLE...

CITY           SKY/WX    TMP DP  RH WIND       PRES   REMARKS
CHADRON        CLOUDY    66  37  34 SW14      29.99F
ALLIANCE       PTSUNNY   67  32  27 W22       30.05F
SCOTTSBLUFF    CLOUDY    63  41  44 CALM      30.07F
SIDNEY         MOSUNNY   70  39  32 S15       30.10F

...WESTERN AND NORTH CENTRAL NEBRASKA...

CITY           SKY/WX    TMP DP  RH WIND       PRES   REMARKS
VALENTINE      SUNNY     70  39  32 SW12      30.00F
AINSWORTH      SUNNY     70  36  28 SW15      30.01F
ONEILL         SUNNY     69  50  50 SW17      30.03F
BROKEN BOW     SUNNY     63  56  78 SW9       30.07F
IMPERIAL       MOSUNNY   72  43  35 SW14      30.09F
NORTH PLATTE   MOSUNNY   70  47  43 S10       30.07F
MCCOOK         MOSUNNY   66  51  58 MISG      30.10F

...EASTERN NEBRASKA...

CITY           SKY/WX    TMP DP  RH WIND       PRES   REMARKS
NORFOLK        SUNNY     67  50  54 S12       30.05F
SO SIOUX CITY  SUNNY     67  52  58 S6        30.05F
TEKAMAH        SUNNY     64  56  75 S3        30.05F
COLUMBUS       MOSUNNY   57  52  82 SW6       30.09F
ALBION         SUNNY     65  49  56 S9        30.06F
OMAHA EPPLEY   SUNNY     64  55  72 SW5       30.06F
OFFUTT AFB     SUNNY     68  57  69 W6        30.05F
MILLARD        SUNNY     64  54  69 CALM      30.06S
LINCOLN        PTSUNNY   64  57  78 SW8       30.09F
NEBRASKA CITY  SUNNY     67  55  64 CALM      30.07F
BEATRICE       SUNNY     66  58  75 CALM      30.08F
FALLS CITY     MOSUNNY   70  58  65 W5        30.06F

...NORTHERN KANSAS...

CITY           SKY/WX    TMP DP  RH WIND       PRES   REMARKS
GOODLAND       SUNNY     71  44  37 S10       30.13F
HILL CITY      CLOUDY    61  58  90 SW8       30.12F
NORTON         MOCLDY    59  57  94 SE6       30.10
PHILLIPSBURG   FOG       57  57 100 SW3       30.12S VSB 3/4
SMITH CENTER   FOG       55  55 100 CALM      30.11F VSB 1
BELOIT         CLOUDY    61  61 100 W6        30.09F
RUSSELL        MOSUNNY   72  58  61 VRB3      30.09F
CONCORDIA      MOSUNNY   70  59  68 W3        30.08F
SALINA         MOSUNNY   72  60  66 SW6       30.08F
TOPEKA         CLOUDY    68  62  81 SW8       30.08F



USA.gov is the U.S. government's official web portal to all federal, state and local government web resources and services.